Tracking 19908 objects as of 19-Oct-2019
HD Live streaming from Space Station
objects crossing your sky now

CZ-2C DEB

Track CZ-2C DEB now!
10-day predictions


NORAD ID: 43520
Int'l Code: 2018-054C
Perigee: 468.6 km
Apogee: 480.3 km
Inclination: 35.0 °
Period: 93.9 minutes
Semi major axis: 6845 km
RCS: Unknown
Launch date: June 27, 2018
Source: People's Republic of China (PRC)
Launch site: Xichang Space Center, China (XSC)

Note: This is SATELLITE DEBRIS
aabbcc
Your satellite tracking list
Your tracking list is empty




NASA's NSSDC Master Catalog

Two Line Element Set (TLE):
1 43520U 18054C   19291.88797843 +.00004632 +00000-0 +14324-3 0  9990
2 43520 034.9966 135.8629 0008513 355.6346 004.4296 15.32851398073400
Source of the keplerian elements: AFSPC